Darstellungsparameter: Aktuell verwendete Einstellungen:
Skalierung der Graphiken ... ?
xyx+y,   Skalierungsfaktor:      Skalierung: Modus: x, Faktor: 1
Darstellungszeitraum ... ?
Vom - - bis: - -   Zeitraum: 01.03.2003 - 02.03.2003
Min/Max/Avg-Anzeige ... ?
Zeige MMA aktuell
Zeige MMA Monat
Zeige MMA alles
Zeige --A aktuell
Zeige --A Monat
Zeige --A alles
Keine MMA-Anzeige
MMA:
Average (ber die Originaldaten)
MMA-Basis: 01.03.2003 - 02.03.2003
Quicknavigation für Darstellung... ?
Tage:      1T, 2T, 3T, 5T -1T -2T -3T -5T +1T +2T +3T +5T
Wochen: 1W, 2W, 3W -1W -2W -3W +1W +2W +3W
Monate: 1M, 3M, 6M -1M -3M -6M +1M +3M +6M
Jahre:    1J, 3J, 5J, 10J -1J -3J -5J -10J +1J +3J +5J +10J
Nutze für die Darstellung ... ?
Originaldaten oder Mittelwerte auf ...
Stundenbasis Tagesbasis Wochenbasis
Monatsbasis Jahresbasis      Datenbasis: Original-Daten
Darstellen als:
Statistik (Auto) Statistik J:M      Darstellung:
Zur Graphik,    zurück zur Übersicht aller Sensoren.
 
Tabellarische Datenbersicht: ?
 
Sensor: Nr:Datum:Temp:Abs-Feuchte:Windchill:Wind:
Aussen-T/F 1 01-03-2003 00:01:10 5.2 C 5.58 g/m*3 5.2 C 0 km/h
2 01-03-2003 00:02:10 5.2 C 5.58 g/m*3 5.2 C 0 km/h
3 01-03-2003 00:07:10 5.2 C 5.65 g/m*3 5.2 C 0 km/h
4 01-03-2003 00:08:10 5.2 C 5.65 g/m*3 5.2 C 0 km/h
5 01-03-2003 00:13:10 5.1 C 5.61 g/m*3 5.1 C 0 km/h
6 01-03-2003 00:14:10 5.1 C 5.61 g/m*3 5.1 C 0 km/h
7 01-03-2003 00:19:10 4.7 C 5.46 g/m*3 4.7 C 0 km/h
8 01-03-2003 00:20:10 4.7 C 5.46 g/m*3 4.7 C 0 km/h
9 01-03-2003 00:25:10 4.5 C 5.39 g/m*3 4.5 C 0 km/h
10 01-03-2003 00:26:10 4.5 C 5.39 g/m*3 4.5 C 0 km/h
11 01-03-2003 00:31:10 4.5 C 5.46 g/m*3 4.5 C 0 km/h
12 01-03-2003 00:32:10 4.5 C 5.46 g/m*3 4.5 C 0 km/h
13 01-03-2003 00:37:10 4.4 C 5.48 g/m*3 4.4 C 0 km/h
14 01-03-2003 00:38:10 4.4 C 5.48 g/m*3 4.4 C 0 km/h
15 01-03-2003 00:43:10 4.5 C 5.59 g/m*3 4.5 C 0 km/h
16 01-03-2003 00:44:10 4.5 C 5.59 g/m*3 4.5 C 0 km/h
17 01-03-2003 00:49:10 4.5 C 5.59 g/m*3 4.5 C 0 km/h
18 01-03-2003 00:50:10 4.5 C 5.59 g/m*3 4.5 C 0 km/h
19 01-03-2003 00:55:10 4.5 C 5.52 g/m*3 4.5 C 0 km/h
20 01-03-2003 00:56:10 4.5 C 5.52 g/m*3 4.5 C 0 km/h
21 01-03-2003 01:01:10 4.4 C 5.42 g/m*3 4.4 C 0 km/h
22 01-03-2003 01:02:10 4.4 C 5.42 g/m*3 4.4 C 0 km/h
23 01-03-2003 01:07:10 4.3 C 5.38 g/m*3 4.3 C 0 km/h
24 01-03-2003 01:08:10 4.3 C 5.38 g/m*3 4.3 C 0 km/h
25 01-03-2003 01:13:10 4.2 C 5.35 g/m*3 4.2 C 0 km/h
Sensor: Nr:Datum:Temp:Abs-Feuchte:Windchill:Wind:
Aussen-T/F 26 01-03-2003 01:14:10 4.2 C 5.35 g/m*3 4.2 C 0 km/h
27 01-03-2003 01:19:10 4.2 C 5.35 g/m*3 4.2 C 0 km/h
28 01-03-2003 01:20:10 4.2 C 5.35 g/m*3 4.2 C 0 km/h
29 01-03-2003 01:25:10 4.3 C 5.38 g/m*3 4.3 C 0 km/h
30 01-03-2003 01:26:10 4.3 C 5.38 g/m*3 4.3 C 0 km/h
31 01-03-2003 01:31:10 4.3 C 5.38 g/m*3 4.3 C 0 km/h
32 01-03-2003 01:32:10 4.3 C 5.38 g/m*3 4.3 C 0 km/h
33 01-03-2003 01:37:10 4.2 C 5.35 g/m*3 4.2 C 0 km/h
34 01-03-2003 01:38:10 4.2 C 5.35 g/m*3 4.2 C 0 km/h
35 01-03-2003 01:43:10 4.2 C 5.35 g/m*3 4.2 C 0 km/h
36 01-03-2003 01:44:10 4.2 C 5.35 g/m*3 4.2 C 0 km/h
37 01-03-2003 01:49:10 4.3 C 5.38 g/m*3 4.3 C 0 km/h
38 01-03-2003 01:50:10 4.3 C 5.38 g/m*3 4.3 C 0 km/h
39 01-03-2003 01:55:10 4.3 C 5.38 g/m*3 4.3 C 0 km/h
40 01-03-2003 01:56:10 4.3 C 5.38 g/m*3 4.3 C 0 km/h
41 01-03-2003 02:01:10 4.3 C 5.38 g/m*3 4.3 C 0 km/h
42 01-03-2003 02:02:10 4.3 C 5.38 g/m*3 4.3 C 0 km/h
43 01-03-2003 02:07:10 4.4 C 5.42 g/m*3 4.4 C 0 km/h
44 01-03-2003 02:08:10 4.4 C 5.42 g/m*3 4.4 C 0 km/h
45 01-03-2003 02:13:10 4.4 C 5.42 g/m*3 4.4 C 0 km/h
46 01-03-2003 02:14:10 4.4 C 5.42 g/m*3 4.4 C 0 km/h
47 01-03-2003 02:19:10 4.5 C 5.46 g/m*3 4.5 C 0 km/h
48 01-03-2003 02:20:10 4.5 C 5.46 g/m*3 4.5 C 0 km/h
49 01-03-2003 02:25:10 4.5 C 5.39 g/m*3 4.5 C 0 km/h
50 01-03-2003 02:26:10 4.5 C 5.39 g/m*3 4.5 C 0 km/h
Sensor: Nr:Datum:Temp:Abs-Feuchte:Windchill:Wind:
Aussen-T/F 51 01-03-2003 02:31:10 4.6 C 5.49 g/m*3 4.6 C 0 km/h
52 01-03-2003 02:32:10 4.6 C 5.49 g/m*3 4.6 C 0 km/h
53 01-03-2003 02:37:10 4.7 C 5.46 g/m*3 4.7 C 0 km/h
54 01-03-2003 02:38:10 4.7 C 5.46 g/m*3 4.7 C 0 km/h
55 01-03-2003 02:43:10 4.7 C 5.46 g/m*3 4.7 C 0 km/h
56 01-03-2003 02:44:10 4.7 C 5.46 g/m*3 4.7 C 0 km/h
57 01-03-2003 02:49:10 4.6 C 5.49 g/m*3 4.6 C 0 km/h
58 01-03-2003 02:50:10 4.6 C 5.49 g/m*3 4.6 C 0 km/h
59 01-03-2003 02:50:37 4.6 C 5.49 g/m*3 4.6 C 0 km/h
60 01-03-2003 02:55:10 4.7 C 5.53 g/m*3 4.7 C 0 km/h
61 01-03-2003 02:56:37 4.7 C 5.53 g/m*3 4.7 C 0 km/h
62 01-03-2003 03:01:10 4.6 C 5.56 g/m*3 4.6 C 0 km/h
63 01-03-2003 03:02:37 4.6 C 5.56 g/m*3 4.6 C 0 km/h
64 01-03-2003 03:07:10 4.5 C 5.59 g/m*3 4.5 C 0 km/h
65 01-03-2003 03:08:37 4.5 C 5.59 g/m*3 4.5 C 0 km/h
66 01-03-2003 03:13:10 4.4 C 5.62 g/m*3 4.4 C 0 km/h
67 01-03-2003 03:14:37 4.4 C 5.62 g/m*3 4.4 C 0 km/h
68 01-03-2003 03:19:10 4.3 C 5.58 g/m*3 4.3 C 0 km/h
69 01-03-2003 03:20:37 4.3 C 5.58 g/m*3 4.3 C 0 km/h
70 01-03-2003 03:25:10 4.3 C 5.64 g/m*3 4.3 C 0 km/h
71 01-03-2003 03:26:37 4.3 C 5.64 g/m*3 4.3 C 0 km/h
72 01-03-2003 03:31:10 4.3 C 5.71 g/m*3 4.3 C 0 km/h
73 01-03-2003 03:32:37 4.3 C 5.71 g/m*3 4.3 C 0 km/h
74 01-03-2003 03:37:10 4.4 C 5.75 g/m*3 4.4 C 0 km/h
75 01-03-2003 03:38:37 4.4 C 5.75 g/m*3 4.4 C 0 km/h
Sensor: Nr:Datum:Temp:Abs-Feuchte:Windchill:Wind:
Aussen-T/F 76 01-03-2003 03:43:10 4.4 C 5.81 g/m*3 4.4 C 0 km/h
77 01-03-2003 03:44:37 4.4 C 5.81 g/m*3 4.4 C 0 km/h
78 01-03-2003 03:49:10 4.5 C 5.85 g/m*3 4.5 C 0 km/h
79 01-03-2003 03:50:37 4.5 C 5.85 g/m*3 4.5 C 0 km/h
80 01-03-2003 03:55:10 4.4 C 5.81 g/m*3 4.4 C 0 km/h
81 01-03-2003 03:56:37 4.4 C 5.81 g/m*3 4.4 C 0 km/h
82 01-03-2003 04:01:10 4.4 C 5.88 g/m*3 4.4 C 0 km/h
83 01-03-2003 04:02:37 4.4 C 5.88 g/m*3 4.4 C 0 km/h
84 01-03-2003 04:07:10 4.3 C 5.84 g/m*3 4.3 C 0 km/h
85 01-03-2003 04:08:37 4.3 C 5.84 g/m*3 4.3 C 0 km/h
86 01-03-2003 04:13:10 4.3 C 5.84 g/m*3 4.3 C 0 km/h
87 01-03-2003 04:14:37 4.3 C 5.84 g/m*3 4.3 C 0 km/h
88 01-03-2003 04:19:10 4.4 C 5.94 g/m*3 4.4 C 0 km/h
89 01-03-2003 04:20:37 4.4 C 5.94 g/m*3 4.4 C 0 km/h
90 01-03-2003 04:25:10 4.4 C 5.94 g/m*3 4.4 C 0 km/h
91 01-03-2003 04:26:37 4.4 C 5.94 g/m*3 4.4 C 0 km/h
92 01-03-2003 04:31:10 4.4 C 5.94 g/m*3 4.4 C 0 km/h
93 01-03-2003 04:32:37 4.4 C 5.94 g/m*3 4.4 C 0 km/h
94 01-03-2003 04:37:10 4.6 C 6.02 g/m*3 4.6 C 0 km/h
95 01-03-2003 04:38:37 4.6 C 6.02 g/m*3 4.6 C 0 km/h
96 01-03-2003 04:43:10 4.6 C 6.09 g/m*3 4.6 C 0 km/h
97 01-03-2003 04:44:37 4.6 C 6.09 g/m*3 4.6 C 0 km/h
98 01-03-2003 04:49:10 4.7 C 6.13 g/m*3 4.7 C 0 km/h
99 01-03-2003 04:50:37 4.7 C 6.13 g/m*3 4.7 C 0 km/h
100 01-03-2003 04:55:10 4.7 C 6.13 g/m*3 4.7 C 0 km/h
Sensor: Nr:Datum:Temp:Abs-Feuchte:Windchill:Wind:
Aussen-T/F 101 01-03-2003 04:56:37 4.7 C 6.13 g/m*3 4.7 C 0 km/h
102 01-03-2003 05:01:10 4.6 C 6.09 g/m*3 4.6 C 0 km/h
103 01-03-2003 05:02:37 4.6 C 6.09 g/m*3 4.6 C 0 km/h
104 01-03-2003 05:07:10 4.7 C 6.13 g/m*3 4.7 C 0 km/h
105 01-03-2003 05:08:37 4.7 C 6.13 g/m*3 4.7 C 0 km/h
106 01-03-2003 05:13:10 4.6 C 6.09 g/m*3 4.6 C 0 km/h
107 01-03-2003 05:14:37 4.6 C 6.09 g/m*3 4.6 C 0 km/h
108 01-03-2003 05:19:10 4.7 C 6.13 g/m*3 4.7 C 0 km/h
109 01-03-2003 05:20:37 4.7 C 6.13 g/m*3 4.7 C 0 km/h
110 01-03-2003 05:25:10 4.5 C 6.05 g/m*3 4.5 C 0 km/h
111 01-03-2003 05:26:37 4.5 C 6.05 g/m*3 4.5 C 0 km/h
112 01-03-2003 05:31:10 4.4 C 6.01 g/m*3 4.4 C 0 km/h
113 01-03-2003 05:32:37 4.4 C 6.01 g/m*3 4.4 C 0 km/h
114 01-03-2003 05:37:10 4.4 C 6.01 g/m*3 4.4 C 0 km/h
115 01-03-2003 05:38:37 4.4 C 6.01 g/m*3 4.4 C 0 km/h
116 01-03-2003 05:43:10 4.3 C 5.97 g/m*3 4.3 C 0 km/h
117 01-03-2003 05:44:37 4.3 C 5.97 g/m*3 4.3 C 0 km/h
118 01-03-2003 05:49:10 4.3 C 5.97 g/m*3 4.3 C 0 km/h
119 01-03-2003 05:50:37 4.3 C 5.97 g/m*3 4.3 C 0 km/h
120 01-03-2003 05:55:10 4.3 C 5.97 g/m*3 4.3 C 0 km/h
121 01-03-2003 05:56:37 4.3 C 5.97 g/m*3 4.3 C 0 km/h
122 01-03-2003 06:01:10 4.5 C 6.05 g/m*3 4.5 C 0 km/h
123 01-03-2003 06:02:37 4.5 C 6.05 g/m*3 4.5 C 0 km/h
124 01-03-2003 06:07:10 4.5 C 6.05 g/m*3 4.5 C 0 km/h
125 01-03-2003 06:08:37 4.5 C 6.05 g/m*3 4.5 C 0 km/h
Sensor: Nr:Datum:Temp:Abs-Feuchte:Windchill:Wind:
Aussen-T/F 126 01-03-2003 06:13:10 4.8 C 6.24 g/m*3 4.8 C 0 km/h
127 01-03-2003 06:14:37 4.8 C 6.24 g/m*3 4.8 C 0 km/h
128 01-03-2003 06:19:10 5 C 6.25 g/m*3 5 C 0 km/h
129 01-03-2003 06:20:37 5 C 6.25 g/m*3 5 C 0 km/h
130 01-03-2003 06:25:10 4.9 C 6.28 g/m*3 4.9 C 0 km/h
131 01-03-2003 06:26:37 4.9 C 6.28 g/m*3 4.9 C 0 km/h
132 01-03-2003 06:31:10 5.1 C 6.29 g/m*3 5.1 C 0 km/h
133 01-03-2003 06:32:37 5.1 C 6.29 g/m*3 5.1 C 0 km/h
134 01-03-2003 06:37:10 5.2 C 6.33 g/m*3 5.2 C 0 km/h
135 01-03-2003 06:38:37 5.2 C 6.33 g/m*3 5.2 C 0 km/h
136 01-03-2003 06:43:10 5.4 C 6.42 g/m*3 5.4 C 0 km/h
137 01-03-2003 06:44:37 5.4 C 6.42 g/m*3 5.4 C 0 km/h
138 01-03-2003 06:49:10 5.7 C 6.62 g/m*3 5.7 C 0 km/h
139 01-03-2003 06:50:37 5.7 C 6.62 g/m*3 5.7 C 0 km/h
140 01-03-2003 06:55:10 6 C 6.75 g/m*3 6 C 0 km/h
141 01-03-2003 06:56:37 6 C 6.75 g/m*3 6 C 0 km/h
142 01-03-2003 07:01:10 6.3 C 6.88 g/m*3 6.3 C 0 km/h
143 01-03-2003 07:02:37 6.3 C 6.88 g/m*3 6.3 C 0 km/h
144 01-03-2003 07:07:10 6.5 C 6.9 g/m*3 6.5 C 0 km/h
145 01-03-2003 07:08:37 6.5 C 6.9 g/m*3 6.5 C 0 km/h
146 01-03-2003 07:13:10 6.7 C 6.91 g/m*3 6.7 C 0 km/h
147 01-03-2003 07:14:37 6.7 C 6.91 g/m*3 6.7 C 0 km/h
148 01-03-2003 07:19:10 6.8 C 6.96 g/m*3 6.8 C 0 km/h
149 01-03-2003 07:20:37 6.8 C 6.96 g/m*3 6.8 C 0 km/h
150 01-03-2003 07:25:10 7 C 6.97 g/m*3 7 C 0 km/h
Sensor: Nr:Datum:Temp:Abs-Feuchte:Windchill:Wind:
Aussen-T/F 151 01-03-2003 07:26:37 7 C 6.97 g/m*3 7 C 0 km/h
152 01-03-2003 07:31:10 7.3 C 7.03 g/m*3 7.3 C 0 km/h
153 01-03-2003 07:32:37 7.3 C 7.03 g/m*3 7.3 C 0 km/h
154 01-03-2003 07:37:10 7.6 C 7.09 g/m*3 7.6 C 0 km/h
155 01-03-2003 07:38:37 7.6 C 7.09 g/m*3 7.6 C 0 km/h
156 01-03-2003 07:43:10 7.7 C 7.05 g/m*3 7.7 C 0 km/h
157 01-03-2003 07:44:37 7.7 C 7.05 g/m*3 7.7 C 0 km/h
158 01-03-2003 07:49:10 7.8 C 7.02 g/m*3 7.8 C 0 km/h
159 01-03-2003 07:50:37 7.8 C 7.02 g/m*3 7.8 C 0 km/h
160 01-03-2003 07:55:10 7.9 C 6.98 g/m*3 7.9 C 0 km/h
161 01-03-2003 07:56:37 7.9 C 6.98 g/m*3 7.9 C 0 km/h
162 01-03-2003 08:01:10 8 C 6.94 g/m*3 8 C 0 km/h
163 01-03-2003 08:02:37 8 C 6.94 g/m*3 8 C 0 km/h
164 01-03-2003 08:07:10 8 C 6.86 g/m*3 8 C 0 km/h
165 01-03-2003 08:08:37 8 C 6.86 g/m*3 8 C 0 km/h
166 01-03-2003 08:13:10 8.1 C 6.91 g/m*3 8.1 C 0 km/h
167 01-03-2003 08:14:37 8.1 C 6.91 g/m*3 8.1 C 0 km/h
168 01-03-2003 08:19:10 8.1 C 6.91 g/m*3 8.1 C 0 km/h
169 01-03-2003 08:20:37 8.1 C 6.91 g/m*3 8.1 C 0 km/h
170 01-03-2003 08:25:10 8.2 C 6.87 g/m*3 8.2 C 0 km/h
171 01-03-2003 08:26:37 8.2 C 6.87 g/m*3 8.2 C 0 km/h
172 01-03-2003 08:31:10 8.1 C 6.91 g/m*3 8.1 C 0 km/h
173 01-03-2003 08:32:37 8.1 C 6.91 g/m*3 8.1 C 0 km/h
174 01-03-2003 08:37:10 8.1 C 6.91 g/m*3 8.1 C 0 km/h
175 01-03-2003 08:38:37 8.1 C 6.91 g/m*3 8.1 C 0 km/h
Sensor: Nr:Datum:Temp:Abs-Feuchte:Windchill:Wind:
Aussen-T/F 176 01-03-2003 08:43:10 8 C 6.86 g/m*3 8 C 0 km/h
177 01-03-2003 08:44:37 8 C 6.86 g/m*3 8 C 0 km/h
178 01-03-2003 08:49:10 7.9 C 6.98 g/m*3 7.9 C 0 km/h
179 01-03-2003 08:50:37 7.9 C 6.98 g/m*3 7.9 C 0 km/h
180 01-03-2003 08:55:10 7.8 C 6.94 g/m*3 7.8 C 0 km/h
181 01-03-2003 08:56:37 7.8 C 6.94 g/m*3 7.8 C 0 km/h
182 01-03-2003 09:01:10 7.8 C 7.02 g/m*3 7.8 C 0 km/h
183 01-03-2003 09:02:37 7.8 C 7.02 g/m*3 7.8 C 0 km/h
184 01-03-2003 09:07:10 7.9 C 7.06 g/m*3 7.9 C 0 km/h
185 01-03-2003 09:08:37 7.9 C 7.06 g/m*3 7.9 C 0 km/h
186 01-03-2003 09:13:10 7.9 C 7.06 g/m*3 7.9 C 0 km/h
187 01-03-2003 09:14:37 7.9 C 7.06 g/m*3 7.9 C 0 km/h
188 01-03-2003 09:19:10 8 C 6.94 g/m*3 8 C 0 km/h
189 01-03-2003 09:20:37 8 C 6.94 g/m*3 8 C 0 km/h
190 01-03-2003 09:25:10 8.1 C 6.99 g/m*3 8.1 C 0 km/h
191 01-03-2003 09:26:37 8.1 C 6.99 g/m*3 8.1 C 0 km/h
192 01-03-2003 09:31:10 8.2 C 7.03 g/m*3 8.2 C 0 km/h
193 01-03-2003 09:32:37 8.2 C 7.03 g/m*3 8.2 C 0 km/h
194 01-03-2003 09:37:10 8.2 C 7.03 g/m*3 8.2 C 0 km/h
195 01-03-2003 09:38:37 8.2 C 7.03 g/m*3 8.2 C 0 km/h
196 01-03-2003 09:43:10 8.3 C 7 g/m*3 8.3 C 0 km/h
197 01-03-2003 09:44:37 8.3 C 7 g/m*3 8.3 C 0 km/h
198 01-03-2003 09:49:10 8.4 C 7.04 g/m*3 8.4 C 0 km/h
199 01-03-2003 09:50:37 8.4 C 7.04 g/m*3 8.4 C 0 km/h
200 01-03-2003 09:55:10 8.5 C 7.09 g/m*3 8.5 C 0 km/h
Sensor: Nr:Datum:Temp:Abs-Feuchte:Windchill:Wind:
Aussen-T/F 201 01-03-2003 09:56:37 8.5 C 7.09 g/m*3 8.5 C 0 km/h
202 01-03-2003 10:01:10 8.7 C 7.09 g/m*3 8.7 C 0 km/h
203 01-03-2003 10:02:37 8.7 C 7.09 g/m*3 8.7 C 0 km/h
204 01-03-2003 10:07:10 8.8 C 7.14 g/m*3 8.8 C 0 km/h
205 01-03-2003 10:08:37 8.8 C 7.14 g/m*3 8.8 C 0 km/h
206 01-03-2003 10:13:10 8.9 C 7.1 g/m*3 8.9 C 0 km/h
207 01-03-2003 10:14:37 8.9 C 7.1 g/m*3 8.9 C 0 km/h
208 01-03-2003 10:19:10 8.9 C 7.1 g/m*3 8.9 C 0 km/h
209 01-03-2003 10:20:37 8.9 C 7.1 g/m*3 8.9 C 0 km/h
210 01-03-2003 10:25:10 8.9 C 7.1 g/m*3 8.9 C 0 km/h
211 01-03-2003 10:26:37 8.9 C 7.1 g/m*3 8.9 C 0 km/h
212 01-03-2003 10:31:10 8.9 C 7.1 g/m*3 8.9 C 0 km/h
213 01-03-2003 10:32:37 8.9 C 7.1 g/m*3 8.9 C 0 km/h
214 01-03-2003 10:37:10 8.9 C 7.1 g/m*3 8.9 C 0 km/h
215 01-03-2003 10:38:37 8.9 C 7.1 g/m*3 8.9 C 0 km/h
216 01-03-2003 10:43:10 8.9 C 7.1 g/m*3 8.9 C 0 km/h
217 01-03-2003 10:44:37 8.9 C 7.1 g/m*3 8.9 C 0 km/h
218 01-03-2003 10:49:10 9 C 6.96 g/m*3 9 C 0 km/h
219 01-03-2003 10:50:37 9 C 6.96 g/m*3 9 C 0 km/h
220 01-03-2003 10:55:10 9 C 6.96 g/m*3 9 C 0 km/h
221 01-03-2003 10:56:37 9 C 6.96 g/m*3 9 C 0 km/h
222 01-03-2003 11:01:10 9.1 C 7.01 g/m*3 9.1 C 0 km/h
223 01-03-2003 11:02:37 9.1 C 7.01 g/m*3 9.1 C 0 km/h
224 01-03-2003 11:07:10 9.2 C 7.05 g/m*3 9.2 C 0 km/h
225 01-03-2003 11:08:37 9.2 C 7.05 g/m*3 9.2 C 0 km/h
Sensor: Nr:Datum:Temp:Abs-Feuchte:Windchill:Wind:
Aussen-T/F 226 01-03-2003 11:13:10 9.3 C 7.01 g/m*3 9.3 C 0 km/h
227 01-03-2003 11:14:37 9.3 C 7.01 g/m*3 9.3 C 0 km/h
228 01-03-2003 11:19:10 9.3 C 7.01 g/m*3 9.3 C 0 km/h
229 01-03-2003 11:20:37 9.3 C 7.01 g/m*3 9.3 C 0 km/h
230 01-03-2003 11:25:10 9.4 C 7.05 g/m*3 9.4 C 0 km/h
231 01-03-2003 11:26:37 9.4 C 7.05 g/m*3 9.4 C 0 km/h
232 01-03-2003 11:31:10 9.4 C 7.05 g/m*3 9.4 C 0 km/h
233 01-03-2003 11:32:37 9.4 C 7.05 g/m*3 9.4 C 0 km/h
234 01-03-2003 11:37:10 9.6 C 7.05 g/m*3 9.6 C 0 km/h
235 01-03-2003 11:38:37 9.6 C 7.05 g/m*3 9.6 C 0 km/h
236 01-03-2003 11:43:10 9.6 C 7.05 g/m*3 9.6 C 0 km/h
237 01-03-2003 11:44:37 9.6 C 7.05 g/m*3 9.6 C 0 km/h
238 01-03-2003 11:49:10 9.6 C 7.05 g/m*3 9.6 C 0 km/h
239 01-03-2003 11:50:37 9.6 C 7.05 g/m*3 9.6 C 0 km/h
240 01-03-2003 11:55:10 9.7 C 7.01 g/m*3 9.7 C 0 km/h
241 01-03-2003 11:56:37 9.7 C 7.01 g/m*3 9.7 C 0 km/h
242 01-03-2003 12:01:10 9.7 C 7.01 g/m*3 9.7 C 0 km/h
243 01-03-2003 12:02:37 9.7 C 7.01 g/m*3 9.7 C 0 km/h
244 01-03-2003 12:07:10 9.8 C 7.05 g/m*3 9.8 C 0 km/h
245 01-03-2003 12:08:37 9.8 C 7.05 g/m*3 9.8 C 0 km/h
246 01-03-2003 12:13:10 9.8 C 7.05 g/m*3 9.8 C 0 km/h
247 01-03-2003 12:14:37 9.8 C 7.05 g/m*3 9.8 C 0 km/h
248 01-03-2003 12:19:10 9.9 C 7 g/m*3 9.9 C 0 km/h
249 01-03-2003 12:20:37 9.9 C 7 g/m*3 9.9 C 0 km/h
250 01-03-2003 12:25:10 10 C 6.86 g/m*3 10 C 0 km/h
Sensor: Nr:Datum:Temp:Abs-Feuchte:Windchill:Wind:
Aussen-T/F 251 01-03-2003 12:26:37 10 C 6.86 g/m*3 10 C 0 km/h
252 01-03-2003 12:31:10 9.9 C 7 g/m*3 9.9 C 0 km/h
253 01-03-2003 12:32:37 9.9 C 7 g/m*3 9.9 C 0 km/h
254 01-03-2003 12:37:10 9.8 C 6.96 g/m*3 9.8 C 0 km/h
255 01-03-2003 12:38:37 9.8 C 6.96 g/m*3 9.8 C 0 km/h
256 01-03-2003 12:43:10 9.8 C 6.96 g/m*3 9.8 C 0 km/h
257 01-03-2003 12:44:37 9.8 C 6.96 g/m*3 9.8 C 0 km/h
258 01-03-2003 12:49:10 9.9 C 7 g/m*3 9.9 C 0 km/h
259 01-03-2003 12:50:37 9.9 C 7 g/m*3 9.9 C 0 km/h
260 01-03-2003 12:55:10 10 C 6.95 g/m*3 10 C 0 km/h
261 01-03-2003 12:56:37 10 C 6.95 g/m*3 10 C 0 km/h
262 01-03-2003 13:01:10 10.1 C 6.9 g/m*3 10.1 C 0 km/h
263 01-03-2003 13:02:37 10.1 C 6.9 g/m*3 10.1 C 0 km/h
264 01-03-2003 13:07:10 10 C 6.86 g/m*3 10 C 0 km/h
265 01-03-2003 13:08:37 10 C 6.86 g/m*3 10 C 0 km/h
266 01-03-2003 13:13:10 10 C 6.86 g/m*3 10 C 0 km/h
267 01-03-2003 13:14:37 10 C 6.86 g/m*3 10 C 0 km/h
268 01-03-2003 13:19:10 10 C 6.86 g/m*3 10 C 0 km/h
269 01-03-2003 13:20:37 10 C 6.86 g/m*3 10 C 0 km/h
270 01-03-2003 13:25:10 10 C 6.86 g/m*3 10 C 0 km/h
271 01-03-2003 13:26:37 10 C 6.86 g/m*3 10 C 0 km/h
272 01-03-2003 13:31:10 10 C 6.86 g/m*3 10 C 0 km/h
273 01-03-2003 13:32:37 10 C 6.86 g/m*3 10 C 0 km/h
274 01-03-2003 13:37:10 10.1 C 7 g/m*3 10.1 C 0 km/h
275 01-03-2003 13:38:37 10.1 C 7 g/m*3 10.1 C 0 km/h
Sensor: Nr:Datum:Temp:Abs-Feuchte:Windchill:Wind:
Aussen-T/F 276 01-03-2003 13:43:10 10.1 C 6.9 g/m*3 10.1 C 0 km/h
277 01-03-2003 13:44:37 10.1 C 6.9 g/m*3 10.1 C 0 km/h
278 01-03-2003 13:49:10 10.2 C 6.95 g/m*3 10.2 C 0 km/h
279 01-03-2003 13:50:37 10.2 C 6.95 g/m*3 10.2 C 0 km/h
280 01-03-2003 13:55:10 10.2 C 6.95 g/m*3 10.2 C 0 km/h
281 01-03-2003 13:56:37 10.2 C 6.95 g/m*3 10.2 C 0 km/h
282 01-03-2003 14:01:10 10.2 C 6.85 g/m*3 10.2 C 0 km/h
283 01-03-2003 14:02:37 10.2 C 6.85 g/m*3 10.2 C 0 km/h
284 01-03-2003 14:07:10 10.4 C 6.94 g/m*3 10.4 C 0 km/h
285 01-03-2003 14:08:37 10.4 C 6.94 g/m*3 10.4 C 0 km/h
286 01-03-2003 14:13:10 10.5 C 6.98 g/m*3 10.5 C 0 km/h
287 01-03-2003 14:14:37 10.5 C 6.98 g/m*3 10.5 C 0 km/h
288 01-03-2003 14:19:10 10.6 C 7.03 g/m*3 10.6 C 0 km/h
289 01-03-2003 14:20:37 10.6 C 7.03 g/m*3 10.6 C 0 km/h
290 01-03-2003 14:25:10 10.9 C 7.06 g/m*3 10.9 C 0 km/h
291 01-03-2003 14:26:37 10.9 C 7.06 g/m*3 10.9 C 0 km/h
292 01-03-2003 14:31:10 11 C 7.01 g/m*3 11 C 0 km/h
293 01-03-2003 14:32:37 11 C 7.01 g/m*3 11 C 0 km/h
294 01-03-2003 14:37:10 11.1 C 7.05 g/m*3 11.1 C 0 km/h
295 01-03-2003 14:38:37 11.1 C 7.05 g/m*3 11.1 C 0 km/h
296 01-03-2003 14:43:10 11.3 C 7.04 g/m*3 11.3 C 0 km/h
297 01-03-2003 14:44:37 11.3 C 7.04 g/m*3 11.3 C 0 km/h
298 01-03-2003 14:49:10 11.5 C 7.13 g/m*3 11.5 C 0 km/h
299 01-03-2003 14:50:37 11.5 C 7.13 g/m*3 11.5 C 0 km/h
300 01-03-2003 14:55:10 11.6 C 7.07 g/m*3 11.6 C 0 km/h
Sensor: Nr:Datum:Temp:Abs-Feuchte:Windchill:Wind:
Aussen-T/F 301 01-03-2003 14:56:37 11.6 C 7.07 g/m*3 11.6 C 0 km/h
302 01-03-2003 15:01:10 11.7 C 7.11 g/m*3 11.7 C 0 km/h
303 01-03-2003 15:02:37 11.7 C 7.11 g/m*3 11.7 C 0 km/h
304 01-03-2003 15:07:10 11.7 C 7.11 g/m*3 11.7 C 0 km/h
305 01-03-2003 15:08:37 11.7 C 7.11 g/m*3 11.7 C 0 km/h
306 01-03-2003 15:13:10 11.8 C 7.16 g/m*3 11.8 C 0 km/h
307 01-03-2003 15:14:37 11.8 C 7.16 g/m*3 11.8 C 0 km/h
308 01-03-2003 15:19:10 11.7 C 7.22 g/m*3 11.7 C 0 km/h
309 01-03-2003 15:20:37 11.7 C 7.22 g/m*3 11.7 C 0 km/h
310 01-03-2003 15:25:10 11.8 C 7.16 g/m*3 11.8 C 0 km/h
311 01-03-2003 15:26:37 11.8 C 7.16 g/m*3 11.8 C 0 km/h
312 01-03-2003 15:31:10 11.9 C 7.2 g/m*3 11.9 C 0 km/h
313 01-03-2003 15:32:37 11.9 C 7.2 g/m*3 11.9 C 0 km/h
314 01-03-2003 15:37:10 11.8 C 6.95 g/m*3 11.8 C 0 km/h
315 01-03-2003 15:38:37 11.8 C 6.95 g/m*3 11.8 C 0 km/h
316 01-03-2003 15:43:10 11.7 C 7.01 g/m*3 11.7 C 0 km/h
317 01-03-2003 15:44:37 11.7 C 7.01 g/m*3 11.7 C 0 km/h
318 01-03-2003 15:49:10 11.7 C 7.01 g/m*3 11.7 C 0 km/h
319 01-03-2003 15:50:37 11.7 C 7.01 g/m*3 11.7 C 0 km/h
320 01-03-2003 15:55:10 11.6 C 6.96 g/m*3 11.6 C 0 km/h
321 01-03-2003 15:56:37 11.6 C 6.96 g/m*3 11.6 C 0 km/h
322 01-03-2003 16:01:11 11.6 C 7.07 g/m*3 11.6 C 0 km/h
323 01-03-2003 16:02:37 11.6 C 7.07 g/m*3 11.6 C 0 km/h
324 01-03-2003 16:07:11 11.5 C 6.92 g/m*3 11.5 C 0 km/h
325 01-03-2003 16:08:37 11.5 C 6.92 g/m*3 11.5 C 0 km/h
Sensor: Nr:Datum:Temp:Abs-Feuchte:Windchill:Wind:
Aussen-T/F 326 01-03-2003 16:13:11 11.5 C 7.02 g/m*3 11.5 C 0 km/h
327 01-03-2003 16:14:37 11.5 C 7.02 g/m*3 11.5 C 0 km/h
328 01-03-2003 16:19:11 11.4 C 6.98 g/m*3 11.4 C 0 km/h
329 01-03-2003 16:20:37 11.4 C 6.98 g/m*3 11.4 C 0 km/h
330 01-03-2003 16:25:11 11.4 C 6.88 g/m*3 11.4 C 0 km/h
331 01-03-2003 16:26:37 11.4 C 6.88 g/m*3 11.4 C 0 km/h
332 01-03-2003 16:31:11 11.4 C 6.88 g/m*3 11.4 C 0 km/h
333 01-03-2003 16:32:37 11.4 C 6.88 g/m*3 11.4 C 0 km/h
334 01-03-2003 16:37:11 11.4 C 6.88 g/m*3 11.4 C 0 km/h
335 01-03-2003 16:38:37 11.4 C 6.88 g/m*3 11.4 C 0 km/h
336 01-03-2003 16:43:11 11.2 C 6.79 g/m*3 11.2 C 0 km/h
337 01-03-2003 16:44:37 11.2 C 6.79 g/m*3 11.2 C 0 km/h
338 01-03-2003 16:49:11 11.2 C 6.89 g/m*3 11.2 C 0 km/h
339 01-03-2003 16:50:37 11.2 C 6.89 g/m*3 11.2 C 0 km/h
340 01-03-2003 16:55:11 11.2 C 6.89 g/m*3 11.2 C 0 km/h
341 01-03-2003 16:56:37 11.2 C 6.89 g/m*3 11.2 C 0 km/h
342 01-03-2003 17:01:11 11.1 C 6.85 g/m*3 11.1 C 0 km/h
343 01-03-2003 17:02:37 11.1 C 6.85 g/m*3 11.1 C 0 km/h
344 01-03-2003 17:07:11 11 C 6.91 g/m*3 11 C 0 km/h
345 01-03-2003 17:08:37 11 C 6.91 g/m*3 11 C 0 km/h
346 01-03-2003 17:13:11 10.9 C 6.96 g/m*3 10.9 C 0 km/h
347 01-03-2003 17:14:37 10.9 C 6.96 g/m*3 10.9 C 0 km/h
348 01-03-2003 17:19:11 10.8 C 7.02 g/m*3 10.8 C 0 km/h
349 01-03-2003 17:20:37 10.8 C 7.02 g/m*3 10.8 C 0 km/h
350 01-03-2003 17:25:11 10.7 C 6.97 g/m*3 10.7 C 0 km/h
Sensor: Nr:Datum:Temp:Abs-Feuchte:Windchill:Wind:
Aussen-T/F 351 01-03-2003 17:26:37 10.7 C 6.97 g/m*3 10.7 C 0 km/h
352 01-03-2003 17:31:11 10.5 C 6.89 g/m*3 10.5 C 0 km/h
353 01-03-2003 17:32:37 10.5 C 6.89 g/m*3 10.5 C 0 km/h
354 01-03-2003 17:37:11 10.5 C 6.98 g/m*3 10.5 C 0 km/h
355 01-03-2003 17:38:37 10.5 C 6.98 g/m*3 10.5 C 0 km/h
356 01-03-2003 17:43:11 10.4 C 6.94 g/m*3 10.4 C 0 km/h
357 01-03-2003 17:44:37 10.4 C 6.94 g/m*3 10.4 C 0 km/h
358 01-03-2003 17:49:11 10.4 C 6.84 g/m*3 10.4 C 0 km/h
359 01-03-2003 17:50:37 10.4 C 6.84 g/m*3 10.4 C 0 km/h
360 01-03-2003 17:55:11 10.3 C 6.8 g/m*3 10.3 C 0 km/h
361 01-03-2003 17:56:37 10.3 C 6.8 g/m*3 10.3 C 0 km/h
362 01-03-2003 18:01:11 10.2 C 6.85 g/m*3 10.2 C 0 km/h
363 01-03-2003 18:02:37 10.2 C 6.85 g/m*3 10.2 C 0 km/h
364 01-03-2003 18:07:11 10.1 C 6.81 g/m*3 10.1 C 0 km/h
365 01-03-2003 18:08:37 10.1 C 6.81 g/m*3 10.1 C 0 km/h
366 01-03-2003 18:13:11 10 C 6.77 g/m*3 10 C 0 km/h
367 01-03-2003 18:14:37 10 C 6.77 g/m*3 10 C 0 km/h
368 01-03-2003 18:19:11 9.9 C 6.91 g/m*3 9.9 C 0 km/h
369 01-03-2003 18:20:37 9.9 C 6.91 g/m*3 9.9 C 0 km/h
370 01-03-2003 18:25:11 9.8 C 6.87 g/m*3 9.8 C 0 km/h
371 01-03-2003 18:26:37 9.8 C 6.87 g/m*3 9.8 C 0 km/h
372 01-03-2003 18:31:11 9.8 C 6.87 g/m*3 9.8 C 0 km/h
373 01-03-2003 18:32:37 9.8 C 6.87 g/m*3 9.8 C 0 km/h
374 01-03-2003 18:37:11 9.7 C 6.82 g/m*3 9.7 C 0 km/h
375 01-03-2003 18:38:37 9.7 C 6.82 g/m*3 9.7 C 0 km/h
Sensor: Nr:Datum:Temp:Abs-Feuchte:Windchill:Wind:
Aussen-T/F 376 01-03-2003 18:43:11 9.6 C 6.87 g/m*3 9.6 C 0 km/h
377 01-03-2003 18:44:37 9.6 C 6.87 g/m*3 9.6 C 0 km/h
378 01-03-2003 18:49:11 9.6 C 6.87 g/m*3 9.6 C 0 km/h
379 01-03-2003 18:50:37 9.6 C 6.87 g/m*3 9.6 C 0 km/h
380 01-03-2003 18:55:11 9.6 C 6.87 g/m*3 9.6 C 0 km/h
381 01-03-2003 18:56:37 9.6 C 6.87 g/m*3 9.6 C 0 km/h
382 01-03-2003 19:01:11 9.6 C 6.87 g/m*3 9.6 C 0 km/h
383 01-03-2003 19:02:37 9.6 C 6.87 g/m*3 9.6 C 0 km/h
384 01-03-2003 19:07:11 9.5 C 6.83 g/m*3 9.5 C 0 km/h
385 01-03-2003 19:08:37 9.5 C 6.83 g/m*3 9.5 C 0 km/h
386 01-03-2003 19:13:11 9.5 C 6.92 g/m*3 9.5 C 0 km/h
387 01-03-2003 19:14:37 9.5 C 6.92 g/m*3 9.5 C 0 km/h
388 01-03-2003 19:19:11 9.5 C 6.92 g/m*3 9.5 C 0 km/h
389 01-03-2003 19:20:37 9.5 C 6.92 g/m*3 9.5 C 0 km/h
390 01-03-2003 19:25:11 9.4 C 6.87 g/m*3 9.4 C 0 km/h
391 01-03-2003 19:26:37 9.4 C 6.87 g/m*3 9.4 C 0 km/h
392 01-03-2003 19:31:11 9.4 C 6.87 g/m*3 9.4 C 0 km/h
393 01-03-2003 19:32:37 9.4 C 6.87 g/m*3 9.4 C 0 km/h
394 01-03-2003 19:37:11 9.4 C 6.87 g/m*3 9.4 C 0 km/h
395 01-03-2003 19:38:37 9.4 C 6.87 g/m*3 9.4 C 0 km/h
396 01-03-2003 19:43:11 9.4 C 6.87 g/m*3 9.4 C 0 km/h
397 01-03-2003 19:44:37 9.4 C 6.87 g/m*3 9.4 C 0 km/h
398 01-03-2003 19:49:11 9.4 C 6.87 g/m*3 9.4 C 0 km/h
399 01-03-2003 19:50:37 9.4 C 6.87 g/m*3 9.4 C 0 km/h
400 01-03-2003 19:55:11 9.4 C 6.87 g/m*3 9.4 C 0 km/h
Sensor: Nr:Datum:Temp:Abs-Feuchte:Windchill:Wind:
Aussen-T/F 401 01-03-2003 19:56:37 9.4 C 6.87 g/m*3 9.4 C 0 km/h
402 01-03-2003 20:02:11 9.3 C 6.83 g/m*3 9.3 C 0 km/h
403 01-03-2003 20:02:37 9.3 C 6.83 g/m*3 9.3 C 0 km/h
404 01-03-2003 20:08:11 9.4 C 6.87 g/m*3 9.4 C 0 km/h
405 01-03-2003 20:08:37 9.4 C 6.87 g/m*3 9.4 C 0 km/h
406 01-03-2003 20:14:11 9.3 C 6.83 g/m*3 9.3 C 0 km/h
407 01-03-2003 20:14:37 9.3 C 6.83 g/m*3 9.3 C 0 km/h
408 01-03-2003 20:20:11 9.3 C 6.83 g/m*3 9.3 C 0 km/h
409 01-03-2003 20:20:37 9.3 C 6.83 g/m*3 9.3 C 0 km/h
410 01-03-2003 20:26:11 9.3 C 6.92 g/m*3 9.3 C 0 km/h
411 01-03-2003 20:26:37 9.3 C 6.92 g/m*3 9.3 C 0 km/h
412 01-03-2003 20:32:11 9.3 C 6.92 g/m*3 9.3 C 0 km/h
413 01-03-2003 20:32:37 9.3 C 6.92 g/m*3 9.3 C 0 km/h
414 01-03-2003 20:38:11 9.2 C 6.88 g/m*3 9.2 C 0 km/h
415 01-03-2003 20:38:37 9.2 C 6.88 g/m*3 9.2 C 0 km/h
416 01-03-2003 20:44:11 9.1 C 6.83 g/m*3 9.1 C 0 km/h
417 01-03-2003 20:44:37 9.1 C 6.83 g/m*3 9.1 C 0 km/h
418 01-03-2003 20:50:11 9.1 C 6.83 g/m*3 9.1 C 0 km/h
419 01-03-2003 20:50:37 9.1 C 6.83 g/m*3 9.1 C 0 km/h
420 01-03-2003 21:02:11 9 C 6.88 g/m*3 9 C 0 km/h
421 01-03-2003 21:02:37 9 C 6.88 g/m*3 9 C 0 km/h
422 01-03-2003 21:08:11 9 C 6.88 g/m*3 9 C 0 km/h
423 01-03-2003 21:08:37 9 C 6.88 g/m*3 9 C 0 km/h
424 01-03-2003 21:14:11 8.9 C 6.92 g/m*3 8.9 C 0 km/h
425 01-03-2003 21:14:37 8.9 C 6.92 g/m*3 8.9 C 0 km/h
Sensor: Nr:Datum:Temp:Abs-Feuchte:Windchill:Wind:
Aussen-T/F 426 01-03-2003 21:20:11 8.8 C 6.96 g/m*3 8.8 C 0 km/h
427 01-03-2003 21:20:37 8.8 C 6.96 g/m*3 8.8 C 0 km/h
428 01-03-2003 21:26:11 8.8 C 7.05 g/m*3 8.8 C 0 km/h
429 01-03-2003 21:26:37 8.8 C 7.05 g/m*3 8.8 C 0 km/h
430 01-03-2003 21:32:11 8.7 C 7.01 g/m*3 8.7 C 0 km/h
431 01-03-2003 21:32:37 8.7 C 7.01 g/m*3 8.7 C 0 km/h
432 01-03-2003 21:38:11 8.8 C 7.05 g/m*3 8.8 C 0 km/h
433 01-03-2003 21:38:37 8.8 C 7.05 g/m*3 8.8 C 0 km/h
434 01-03-2003 21:44:11 8.7 C 7.09 g/m*3 8.7 C 0 km/h
435 01-03-2003 21:44:37 8.7 C 7.09 g/m*3 8.7 C 0 km/h
436 01-03-2003 21:50:11 8.6 C 7.05 g/m*3 8.6 C 0 km/h
437 01-03-2003 21:50:37 8.6 C 7.05 g/m*3 8.6 C 0 km/h
438 01-03-2003 21:56:11 8.5 C 7.09 g/m*3 8.5 C 0 km/h
439 01-03-2003 21:56:37 8.5 C 7.09 g/m*3 8.5 C 0 km/h
440 01-03-2003 22:02:11 8.5 C 7.09 g/m*3 8.5 C 0 km/h
441 01-03-2003 22:02:37 8.5 C 7.09 g/m*3 8.5 C 0 km/h
442 01-03-2003 22:08:11 8.4 C 7.13 g/m*3 8.4 C 0 km/h
443 01-03-2003 22:08:37 8.4 C 7.13 g/m*3 8.4 C 0 km/h
444 01-03-2003 22:14:11 8.4 C 7.13 g/m*3 8.4 C 0 km/h
445 01-03-2003 22:14:37 8.4 C 7.13 g/m*3 8.4 C 0 km/h
446 01-03-2003 22:20:11 8.3 C 7.08 g/m*3 8.3 C 0 km/h
447 01-03-2003 22:20:37 8.3 C 7.08 g/m*3 8.3 C 0 km/h
448 01-03-2003 22:26:11 8.4 C 7.21 g/m*3 8.4 C 0 km/h
449 01-03-2003 22:26:37 8.4 C 7.21 g/m*3 8.4 C 0 km/h
450 01-03-2003 22:32:11 8.4 C 7.21 g/m*3 8.4 C 0 km/h
Sensor: Nr:Datum:Temp:Abs-Feuchte:Windchill:Wind:
Aussen-T/F 451 01-03-2003 22:32:37 8.4 C 7.21 g/m*3 8.4 C 0 km/h
452 01-03-2003 22:38:11 8.3 C 7.25 g/m*3 8.3 C 0 km/h
453 01-03-2003 22:38:37 8.3 C 7.25 g/m*3 8.3 C 0 km/h
454 01-03-2003 22:44:11 8.3 C 7.25 g/m*3 8.3 C 0 km/h
455 01-03-2003 22:44:37 8.3 C 7.25 g/m*3 8.3 C 0 km/h
456 01-03-2003 22:50:11 8.3 C 7.25 g/m*3 8.3 C 0 km/h
457 01-03-2003 22:50:37 8.3 C 7.25 g/m*3 8.3 C 0 km/h
458 01-03-2003 22:56:11 8.2 C 7.2 g/m*3 8.2 C 0 km/h
459 01-03-2003 22:56:37 8.2 C 7.2 g/m*3 8.2 C 0 km/h
460 01-03-2003 23:02:11 8.3 C 7.25 g/m*3 8.3 C 0 km/h
461 01-03-2003 23:02:37 8.3 C 7.25 g/m*3 8.3 C 0 km/h
462 01-03-2003 23:08:11 8.3 C 7.33 g/m*3 8.3 C 0 km/h
463 01-03-2003 23:08:37 8.3 C 7.33 g/m*3 8.3 C 0 km/h
464 01-03-2003 23:14:11 8.2 C 7.29 g/m*3 8.2 C 0 km/h
465 01-03-2003 23:14:37 8.2 C 7.29 g/m*3 8.2 C 0 km/h
466 01-03-2003 23:20:11 8.2 C 7.37 g/m*3 8.2 C 0 km/h
467 01-03-2003 23:20:37 8.2 C 7.37 g/m*3 8.2 C 0 km/h
468 01-03-2003 23:26:11 8.2 C 7.37 g/m*3 8.2 C 0 km/h
469 01-03-2003 23:26:37 8.2 C 7.37 g/m*3 8.2 C 0 km/h
470 01-03-2003 23:32:11 8.1 C 7.32 g/m*3 8.1 C 0 km/h
471 01-03-2003 23:32:37 8.1 C 7.32 g/m*3 8.1 C 0 km/h
472 01-03-2003 23:38:11 8.1 C 7.32 g/m*3 8.1 C 0 km/h
473 01-03-2003 23:38:37 8.1 C 7.32 g/m*3 8.1 C 0 km/h
474 01-03-2003 23:44:11 8.1 C 7.32 g/m*3 8.1 C 0 km/h
475 01-03-2003 23:44:37 8.1 C 7.32 g/m*3 8.1 C 0 km/h
Sensor: Nr:Datum:Temp:Abs-Feuchte:Windchill:Wind:
Aussen-T/F 476 01-03-2003 23:50:11 8.1 C 7.32 g/m*3 8.1 C 0 km/h
477 01-03-2003 23:50:37 8.1 C 7.32 g/m*3 8.1 C 0 km/h
478 01-03-2003 23:56:11 8.1 C 7.32 g/m*3 8.1 C 0 km/h
479 01-03-2003 23:56:37 8.1 C 7.32 g/m*3 8.1 C 0 km/h
480 02-03-2003 00:02:11 8 C 7.28 g/m*3 8 C 0 km/h
481 02-03-2003 00:02:37 8 C 7.28 g/m*3 8 C 0 km/h
482 02-03-2003 00:08:11 8.1 C 7.32 g/m*3 8.1 C 0 km/h
483 02-03-2003 00:08:37 8.1 C 7.32 g/m*3 8.1 C 0 km/h
484 02-03-2003 00:14:11 8 C 7.36 g/m*3 8 C 0 km/h
485 02-03-2003 00:14:37 8 C 7.36 g/m*3 8 C 0 km/h
486 02-03-2003 00:20:11 7.9 C 7.39 g/m*3 7.9 C 0 km/h
487 02-03-2003 00:20:37 7.9 C 7.39 g/m*3 7.9 C 0 km/h
488 02-03-2003 00:26:11 7.9 C 7.39 g/m*3 7.9 C 0 km/h
489 02-03-2003 00:26:37 7.9 C 7.39 g/m*3 7.9 C 0 km/h
490 02-03-2003 00:32:11 7.9 C 7.39 g/m*3 7.9 C 0 km/h
491 02-03-2003 00:32:37 7.9 C 7.39 g/m*3 7.9 C 0 km/h
492 02-03-2003 00:38:11 7.8 C 7.35 g/m*3 7.8 C 0 km/h
493 02-03-2003 00:38:37 7.8 C 7.35 g/m*3 7.8 C 0 km/h
494 02-03-2003 00:44:11 7.8 C 7.35 g/m*3 7.8 C 0 km/h
495 02-03-2003 00:44:37 7.8 C 7.35 g/m*3 7.8 C 0 km/h
496 02-03-2003 00:50:11 7.8 C 7.43 g/m*3 7.8 C 0 km/h
497 02-03-2003 00:50:37 7.8 C 7.43 g/m*3 7.8 C 0 km/h
498 02-03-2003 00:56:11 7.9 C 7.39 g/m*3 7.9 C 0 km/h
499 02-03-2003 00:56:37 7.9 C 7.39 g/m*3 7.9 C 0 km/h
500 02-03-2003 01:02:11 7.9 C 7.39 g/m*3 7.9 C 0 km/h
Sensor: Nr:Datum:Temp:Abs-Feuchte:Windchill:Wind:
Aussen-T/F 501 02-03-2003 01:02:37 7.9 C 7.39 g/m*3 7.9 C 0 km/h
502 02-03-2003 01:08:11 7.8 C 7.35 g/m*3 7.8 C 0 km/h
503 02-03-2003 01:08:37 7.8 C 7.35 g/m*3 7.8 C 0 km/h
504 02-03-2003 01:14:11 7.8 C 7.35 g/m*3 7.8 C 0 km/h
505 02-03-2003 01:14:37 7.8 C 7.35 g/m*3 7.8 C 0 km/h
506 02-03-2003 01:20:11 7.8 C 7.43 g/m*3 7.8 C 0 km/h
507 02-03-2003 01:20:37 7.8 C 7.43 g/m*3 7.8 C 0 km/h
508 02-03-2003 01:26:11 7.7 C 7.38 g/m*3 7.7 C 0 km/h
509 02-03-2003 01:26:37 7.7 C 7.38 g/m*3 7.7 C 0 km/h
510 02-03-2003 01:32:11 7.8 C 7.43 g/m*3 7.8 C 0 km/h
511 02-03-2003 01:32:37 7.8 C 7.43 g/m*3 7.8 C 0 km/h
512 02-03-2003 01:38:11 7.8 C 7.43 g/m*3 7.8 C 0 km/h
513 02-03-2003 01:38:37 7.8 C 7.43 g/m*3 7.8 C 0 km/h
514 02-03-2003 01:44:11 7.8 C 7.43 g/m*3 7.8 C 0 km/h
515 02-03-2003 01:44:37 7.8 C 7.43 g/m*3 7.8 C 0 km/h
516 02-03-2003 01:50:11 7.7 C 7.38 g/m*3 7.7 C 0 km/h
517 02-03-2003 01:50:37 7.7 C 7.38 g/m*3 7.7 C 0 km/h
518 02-03-2003 01:56:11 7.8 C 7.43 g/m*3 7.8 C 0 km/h
519 02-03-2003 01:56:37 7.8 C 7.43 g/m*3 7.8 C 0 km/h
520 02-03-2003 02:02:11 7.8 C 7.43 g/m*3 7.8 C 0 km/h
521 02-03-2003 02:02:37 7.8 C 7.43 g/m*3 7.8 C 0 km/h
522 02-03-2003 02:08:11 7.7 C 7.38 g/m*3 7.7 C 0 km/h
523 02-03-2003 02:08:37 7.7 C 7.38 g/m*3 7.7 C 0 km/h
524 02-03-2003 02:14:11 7.6 C 7.33 g/m*3 7.6 C 0 km/h
525 02-03-2003 02:14:37 7.6 C 7.33 g/m*3 7.6 C 0 km/h
Sensor: Nr:Datum:Temp:Abs-Feuchte:Windchill:Wind:
Aussen-T/F 526 02-03-2003 02:20:11 7.6 C 7.33 g/m*3 7.6 C 0 km/h
527 02-03-2003 02:20:37 7.6 C 7.33 g/m*3 7.6 C 0 km/h
528 02-03-2003 02:26:11 7.6 C 7.33 g/m*3 7.6 C 0 km/h
529 02-03-2003 02:26:37 7.6 C 7.33 g/m*3 7.6 C 0 km/h
530 02-03-2003 02:32:11 7.7 C 7.38 g/m*3 7.7 C 0 km/h
531 02-03-2003 02:32:37 7.7 C 7.38 g/m*3 7.7 C 0 km/h
532 02-03-2003 02:38:11 7.8 C 7.43 g/m*3 7.8 C 0 km/h
533 02-03-2003 02:38:37 7.8 C 7.43 g/m*3 7.8 C 0 km/h
534 02-03-2003 02:44:11 7.7 C 7.38 g/m*3 7.7 C 0 km/h
535 02-03-2003 02:44:37 7.7 C 7.38 g/m*3 7.7 C 0 km/h
536 02-03-2003 02:50:11 7.7 C 7.38 g/m*3 7.7 C 0 km/h
537 02-03-2003 02:50:37 7.7 C 7.38 g/m*3 7.7 C 0 km/h
538 02-03-2003 02:56:11 7.8 C 7.35 g/m*3 7.8 C 0 km/h
539 02-03-2003 02:56:37 7.8 C 7.35 g/m*3 7.8 C 0 km/h
540 02-03-2003 03:02:11 7.8 C 7.35 g/m*3 7.8 C 0 km/h
541 02-03-2003 03:02:37 7.8 C 7.35 g/m*3 7.8 C 0 km/h
542 02-03-2003 03:08:11 8 C 7.36 g/m*3 8 C 0 km/h
543 02-03-2003 03:08:37 8 C 7.36 g/m*3 8 C 0 km/h
544 02-03-2003 03:14:11 7.8 C 7.26 g/m*3 7.8 C 0 km/h
545 02-03-2003 03:14:37 7.8 C 7.26 g/m*3 7.8 C 0 km/h
546 02-03-2003 03:20:11 7.7 C 7.22 g/m*3 7.7 C 0 km/h
547 02-03-2003 03:20:37 7.7 C 7.22 g/m*3 7.7 C 0 km/h
548 02-03-2003 03:26:11 7.7 C 7.22 g/m*3 7.7 C 0 km/h
549 02-03-2003 03:26:37 7.7 C 7.22 g/m*3 7.7 C 0 km/h
550 02-03-2003 03:32:11 7.7 C 7.3 g/m*3 7.7 C 0 km/h
Sensor: Nr:Datum:Temp:Abs-Feuchte:Windchill:Wind:
Aussen-T/F 551 02-03-2003 03:32:37 7.7 C 7.3 g/m*3 7.7 C 0 km/h
552 02-03-2003 03:38:11 7.7 C 7.3 g/m*3 7.7 C 0 km/h
553 02-03-2003 03:38:37 7.7 C 7.3 g/m*3 7.7 C 0 km/h
554 02-03-2003 03:44:11 7.6 C 7.25 g/m*3 7.6 C 0 km/h
555 02-03-2003 03:44:37 7.6 C 7.25 g/m*3 7.6 C 0 km/h
556 02-03-2003 03:50:11 7.6 C 7.25 g/m*3 7.6 C 0 km/h
557 02-03-2003 03:50:37 7.6 C 7.25 g/m*3 7.6 C 0 km/h
558 02-03-2003 03:56:11 7.5 C 7.2 g/m*3 7.5 C 0 km/h
559 02-03-2003 03:56:37 7.5 C 7.2 g/m*3 7.5 C 0 km/h
560 02-03-2003 04:02:11 7.5 C 7.2 g/m*3 7.5 C 0 km/h
561 02-03-2003 04:02:37 7.5 C 7.2 g/m*3 7.5 C 0 km/h
562 02-03-2003 04:08:11 7.5 C 7.2 g/m*3 7.5 C 0 km/h
563 02-03-2003 04:08:37 7.5 C 7.2 g/m*3 7.5 C 0 km/h
564 02-03-2003 04:14:11 7.6 C 7.25 g/m*3 7.6 C 0 km/h
565 02-03-2003 04:14:37 7.6 C 7.25 g/m*3 7.6 C 0 km/h
566 02-03-2003 04:20:11 7.6 C 7.25 g/m*3 7.6 C 0 km/h
567 02-03-2003 04:20:37 7.6 C 7.25 g/m*3 7.6 C 0 km/h
568 02-03-2003 04:26:11 7.5 C 7.12 g/m*3 7.5 C 0 km/h
569 02-03-2003 04:26:37 7.5 C 7.12 g/m*3 7.5 C 0 km/h
570 02-03-2003 04:32:11 7.5 C 7.2 g/m*3 7.5 C 0 km/h
571 02-03-2003 04:32:37 7.5 C 7.2 g/m*3 7.5 C 0 km/h
572 02-03-2003 04:38:11 7.5 C 7.2 g/m*3 7.5 C 0 km/h
573 02-03-2003 04:38:37 7.5 C 7.2 g/m*3 7.5 C 0 km/h
574 02-03-2003 04:44:11 7.4 C 7.16 g/m*3 7.4 C 0 km/h
575 02-03-2003 04:44:37 7.4 C 7.16 g/m*3 7.4 C 0 km/h
Sensor: Nr:Datum:Temp:Abs-Feuchte:Windchill:Wind:
Aussen-T/F 576 02-03-2003 04:50:11 7.4 C 7.16 g/m*3 7.4 C 0 km/h
577 02-03-2003 04:50:37 7.4 C 7.16 g/m*3 7.4 C 0 km/h
578 02-03-2003 04:56:11 7.4 C 7.16 g/m*3 7.4 C 0 km/h
579 02-03-2003 04:56:37 7.4 C 7.16 g/m*3 7.4 C 0 km/h
580 02-03-2003 05:02:11 7.5 C 7.2 g/m*3 7.5 C 0 km/h
581 02-03-2003 05:02:37 7.5 C 7.2 g/m*3 7.5 C 0 km/h
582 02-03-2003 05:08:11 7.5 C 7.2 g/m*3 7.5 C 0 km/h
583 02-03-2003 05:08:37 7.5 C 7.2 g/m*3 7.5 C 0 km/h
584 02-03-2003 05:14:11 7.5 C 7.2 g/m*3 7.5 C 0 km/h
585 02-03-2003 05:14:37 7.5 C 7.2 g/m*3 7.5 C 0 km/h
586 02-03-2003 05:20:11 7.5 C 7.2 g/m*3 7.5 C 0 km/h
587 02-03-2003 05:20:37 7.5 C 7.2 g/m*3 7.5 C 0 km/h
588 02-03-2003 05:26:11 7.4 C 7.16 g/m*3 7.4 C 0 km/h
589 02-03-2003 05:26:37 7.4 C 7.16 g/m*3 7.4 C 0 km/h
590 02-03-2003 05:32:11 7.3 C 7.11 g/m*3 7.3 C 0 km/h
591 02-03-2003 05:32:37 7.3 C 7.11 g/m*3 7.3 C 0 km/h
592 02-03-2003 05:38:11 7.3 C 7.11 g/m*3 7.3 C 0 km/h
593 02-03-2003 05:38:37 7.3 C 7.11 g/m*3 7.3 C 0 km/h
594 02-03-2003 05:44:11 7.1 C 7.02 g/m*3 7.1 C 0 km/h
595 02-03-2003 05:44:37 7.1 C 7.02 g/m*3 7.1 C 0 km/h
596 02-03-2003 05:50:11 7.1 C 7.02 g/m*3 7.1 C 0 km/h
597 02-03-2003 05:50:37 7.1 C 7.02 g/m*3 7.1 C 0 km/h
598 02-03-2003 05:56:11 7.2 C 7.14 g/m*3 7.2 C 0 km/h
599 02-03-2003 05:56:37 7.2 C 7.14 g/m*3 7.2 C 0 km/h
600 02-03-2003 06:02:11 7.3 C 7.19 g/m*3 7.3 C 0 km/h
Sensor: Nr:Datum:Temp:Abs-Feuchte:Windchill:Wind:
Aussen-T/F 601 02-03-2003 06:02:37 7.3 C 7.19 g/m*3 7.3 C 0 km/h
602 02-03-2003 06:08:11 7.3 C 7.19 g/m*3 7.3 C 0 km/h
603 02-03-2003 06:08:37 7.3 C 7.19 g/m*3 7.3 C 0 km/h
604 02-03-2003 06:14:11 7.2 C 7.14 g/m*3 7.2 C 0 km/h
605 02-03-2003 06:14:37 7.2 C 7.14 g/m*3 7.2 C 0 km/h
606 02-03-2003 06:20:11 7.2 C 7.14 g/m*3 7.2 C 0 km/h
607 02-03-2003 06:20:37 7.2 C 7.14 g/m*3 7.2 C 0 km/h
608 02-03-2003 06:26:11 7.2 C 7.14 g/m*3 7.2 C 0 km/h
609 02-03-2003 06:26:37 7.2 C 7.14 g/m*3 7.2 C 0 km/h
610 02-03-2003 06:32:11 7.2 C 7.14 g/m*3 7.2 C 0 km/h
611 02-03-2003 06:32:37 7.2 C 7.14 g/m*3 7.2 C 0 km/h
612 02-03-2003 06:38:11 7.3 C 7.19 g/m*3 7.3 C 0 km/h
613 02-03-2003 06:38:37 7.3 C 7.19 g/m*3 7.3 C 0 km/h
614 02-03-2003 06:44:11 7.4 C 7.32 g/m*3 7.4 C 0 km/h
615 02-03-2003 06:44:37 7.4 C 7.32 g/m*3 7.4 C 0 km/h
616 02-03-2003 06:50:11 7.3 C 7.27 g/m*3 7.3 C 0 km/h
617 02-03-2003 06:50:37 7.3 C 7.27 g/m*3 7.3 C 0 km/h
618 02-03-2003 06:56:11 7.3 C 7.27 g/m*3 7.3 C 0 km/h
619 02-03-2003 06:56:37 7.3 C 7.27 g/m*3 7.3 C 0 km/h
620 02-03-2003 07:02:11 7.2 C 7.14 g/m*3 7.2 C 0 km/h
621 02-03-2003 07:02:37 7.2 C 7.14 g/m*3 7.2 C 0 km/h
622 02-03-2003 07:08:11 7.3 C 7.19 g/m*3 7.3 C 0 km/h
623 02-03-2003 07:08:37 7.3 C 7.19 g/m*3 7.3 C 0 km/h
624 02-03-2003 07:14:11 7.3 C 7.27 g/m*3 7.3 C 0 km/h
625 02-03-2003 07:14:37 7.3 C 7.27 g/m*3 7.3 C 0 km/h
Sensor: Nr:Datum:Temp:Abs-Feuchte:Windchill:Wind:
Aussen-T/F 626 02-03-2003 07:20:11 7.4 C 7.32 g/m*3 7.4 C 0 km/h
627 02-03-2003 07:20:37 7.4 C 7.32 g/m*3 7.4 C 0 km/h
628 02-03-2003 07:26:11 7.3 C 7.27 g/m*3 7.3 C 0 km/h
629 02-03-2003 07:26:37 7.3 C 7.27 g/m*3 7.3 C 0 km/h
630 02-03-2003 07:32:11 7.4 C 7.32 g/m*3 7.4 C 0 km/h
631 02-03-2003 07:32:37 7.4 C 7.32 g/m*3 7.4 C 0 km/h
632 02-03-2003 07:38:11 7.3 C 7.27 g/m*3 7.3 C 0 km/h
633 02-03-2003 07:38:37 7.3 C 7.27 g/m*3 7.3 C 0 km/h
634 02-03-2003 07:44:11 7.4 C 7.32 g/m*3 7.4 C 0 km/h
635 02-03-2003 07:44:37 7.4 C 7.32 g/m*3 7.4 C 0 km/h
636 02-03-2003 07:50:11 7.4 C 7.32 g/m*3 7.4 C 0 km/h
637 02-03-2003 07:50:37 7.4 C 7.32 g/m*3 7.4 C 0 km/h
638 02-03-2003 07:56:11 7.5 C 7.36 g/m*3 7.5 C 0 km/h
639 02-03-2003 07:56:37 7.5 C 7.36 g/m*3 7.5 C 0 km/h
640 02-03-2003 08:02:11 7.5 C 7.36 g/m*3 7.5 C 0 km/h
641 02-03-2003 08:02:37 7.5 C 7.36 g/m*3 7.5 C 0 km/h
642 02-03-2003 08:08:11 7.3 C 7.19 g/m*3 7.3 C 0 km/h
643 02-03-2003 08:08:37 7.3 C 7.19 g/m*3 7.3 C 0 km/h
644 02-03-2003 08:14:11 7.5 C 7.28 g/m*3 7.5 C 0 km/h
645 02-03-2003 08:14:37 7.5 C 7.28 g/m*3 7.5 C 0 km/h
646 02-03-2003 08:20:11 7.5 C 7.28 g/m*3 7.5 C 0 km/h
647 02-03-2003 08:20:37 7.5 C 7.28 g/m*3 7.5 C 0 km/h
648 02-03-2003 08:26:11 7.4 C 7.24 g/m*3 7.4 C 0 km/h
649 02-03-2003 08:26:37 7.4 C 7.24 g/m*3 7.4 C 0 km/h
650 02-03-2003 08:32:11 7.5 C 7.28 g/m*3 7.5 C 0 km/h
Sensor: Nr:Datum:Temp:Abs-Feuchte:Windchill:Wind:
Aussen-T/F 651 02-03-2003 08:32:37 7.5 C 7.28 g/m*3 7.5 C 0 km/h
652 02-03-2003 08:38:11 7.6 C 7.33 g/m*3 7.6 C 0 km/h
653 02-03-2003 08:38:37 7.6 C 7.33 g/m*3 7.6 C 0 km/h
654 02-03-2003 08:44:11 7.6 C 7.33 g/m*3 7.6 C 0 km/h
655 02-03-2003 08:44:37 7.6 C 7.33 g/m*3 7.6 C 0 km/h
656 02-03-2003 08:50:11 7.7 C 7.38 g/m*3 7.7 C 0 km/h
657 02-03-2003 08:50:37 7.7 C 7.38 g/m*3 7.7 C 0 km/h
658 02-03-2003 08:56:11 7.8 C 7.43 g/m*3 7.8 C 0 km/h
659 02-03-2003 08:56:37 7.8 C 7.43 g/m*3 7.8 C 0 km/h
660 02-03-2003 09:02:11 7.7 C 7.38 g/m*3 7.7 C 0 km/h
661 02-03-2003 09:02:37 7.7 C 7.38 g/m*3 7.7 C 0 km/h
662 02-03-2003 09:08:11 7.9 C 7.47 g/m*3 7.9 C 0 km/h
663 02-03-2003 09:08:37 7.9 C 7.47 g/m*3 7.9 C 0 km/h
664 02-03-2003 09:14:11 8.1 C 7.57 g/m*3 8.1 C 0 km/h
665 02-03-2003 09:14:37 8.1 C 7.57 g/m*3 8.1 C 0 km/h
666 02-03-2003 09:20:11 8.2 C 7.62 g/m*3 8.2 C 0 km/h
667 02-03-2003 09:20:37 8.2 C 7.62 g/m*3 8.2 C 0 km/h
668 02-03-2003 09:26:11 8.6 C 7.82 g/m*3 8.6 C 0 km/h
669 02-03-2003 09:26:37 8.6 C 7.82 g/m*3 8.6 C 0 km/h
670 02-03-2003 09:32:11 8.8 C 7.92 g/m*3 8.8 C 0 km/h
671 02-03-2003 09:32:37 8.8 C 7.92 g/m*3 8.8 C 0 km/h
672 02-03-2003 09:38:11 9 C 7.85 g/m*3 9 C 0 km/h
673 02-03-2003 09:38:37 9 C 7.85 g/m*3 9 C 0 km/h
674 02-03-2003 09:44:11 9.1 C 7.9 g/m*3 9.1 C 0 km/h
675 02-03-2003 09:44:37 9.1 C 7.9 g/m*3 9.1 C 0 km/h
Sensor: Nr:Datum:Temp:Abs-Feuchte:Windchill:Wind:
Aussen-T/F 676 02-03-2003 09:50:11 9.5 C 8.1 g/m*3 9.5 C 0 km/h
677 02-03-2003 09:50:37 9.5 C 8.1 g/m*3 9.5 C 0 km/h
678 02-03-2003 09:56:11 9.6 C 8.06 g/m*3 9.6 C 0 km/h
679 02-03-2003 09:56:37 9.6 C 8.06 g/m*3 9.6 C 0 km/h
680 02-03-2003 10:02:11 10.1 C 7.66 g/m*3 10.1 C 0 km/h
681 02-03-2003 10:02:37 10.1 C 7.66 g/m*3 10.1 C 0 km/h
682 02-03-2003 10:08:11 10.2 C 7.52 g/m*3 10.2 C 0 km/h
683 02-03-2003 10:08:37 10.2 C 7.52 g/m*3 10.2 C 0 km/h
684 02-03-2003 10:14:11 10.4 C 7.61 g/m*3 10.4 C 0 km/h
685 02-03-2003 10:14:37 10.4 C 7.61 g/m*3 10.4 C 0 km/h
686 02-03-2003 10:20:11 10.8 C 7.81 g/m*3 10.8 C 0 km/h
687 02-03-2003 10:20:37 10.8 C 7.81 g/m*3 10.8 C 0 km/h
688 02-03-2003 10:26:11 11.1 C 7.96 g/m*3 11.1 C 0 km/h
689 02-03-2003 10:26:37 11.1 C 7.96 g/m*3 11.1 C 0 km/h
690 02-03-2003 10:32:11 11.3 C 7.65 g/m*3 11.3 C 0 km/h
691 02-03-2003 10:32:37 11.3 C 7.65 g/m*3 11.3 C 0 km/h
692 02-03-2003 10:38:11 11.4 C 7.6 g/m*3 11.4 C 0 km/h
693 02-03-2003 10:38:37 11.4 C 7.6 g/m*3 11.4 C 0 km/h
694 02-03-2003 10:44:11 11.5 C 7.44 g/m*3 11.5 C 0 km/h
695 02-03-2003 10:44:37 11.5 C 7.44 g/m*3 11.5 C 0 km/h
696 02-03-2003 10:50:11 11.4 C 7.08 g/m*3 11.4 C 0 km/h
697 02-03-2003 10:50:37 11.4 C 7.08 g/m*3 11.4 C 0 km/h
698 02-03-2003 10:56:11 11.1 C 6.85 g/m*3 11.1 C 0 km/h
699 02-03-2003 10:56:37 11.1 C 6.85 g/m*3 11.1 C 0 km/h
700 02-03-2003 11:02:11 11.2 C 6.99 g/m*3 11.2 C 0 km/h
Sensor: Nr:Datum:Temp:Abs-Feuchte:Windchill:Wind:
Aussen-T/F 701 02-03-2003 11:02:37 11.2 C 6.99 g/m*3 11.2 C 0 km/h
702 02-03-2003 11:08:11 11.2 C 6.89 g/m*3 11.2 C 0 km/h
703 02-03-2003 11:08:37 11.2 C 6.89 g/m*3 11.2 C 0 km/h
704 02-03-2003 11:14:11 11.2 C 6.89 g/m*3 11.2 C 0 km/h
705 02-03-2003 11:14:37 11.2 C 6.89 g/m*3 11.2 C 0 km/h
706 02-03-2003 11:20:11 11.1 C 6.75 g/m*3 11.1 C 0 km/h
707 02-03-2003 11:20:37 11.1 C 6.75 g/m*3 11.1 C 0 km/h
708 02-03-2003 11:26:11 11.2 C 6.79 g/m*3 11.2 C 0 km/h
709 02-03-2003 11:26:37 11.2 C 6.79 g/m*3 11.2 C 0 km/h
710 02-03-2003 11:32:11 11.3 C 6.73 g/m*3 11.3 C 0 km/h
711 02-03-2003 11:32:37 11.3 C 6.73 g/m*3 11.3 C 0 km/h
712 02-03-2003 11:38:11 11.5 C 6.92 g/m*3 11.5 C 0 km/h
713 02-03-2003 11:38:37 11.5 C 6.92 g/m*3 11.5 C 0 km/h
714 02-03-2003 11:44:11 11.8 C 7.05 g/m*3 11.8 C 0 km/h
715 02-03-2003 11:44:37 11.8 C 7.05 g/m*3 11.8 C 0 km/h
716 02-03-2003 11:50:11 11.9 C 6.99 g/m*3 11.9 C 0 km/h
717 02-03-2003 11:50:37 11.9 C 6.99 g/m*3 11.9 C 0 km/h
718 02-03-2003 11:56:11 11.7 C 6.9 g/m*3 11.7 C 0 km/h
719 02-03-2003 11:56:37 11.7 C 6.9 g/m*3 11.7 C 0 km/h
720 02-03-2003 12:02:37 11.3 C 6.94 g/m*3 11.3 C 0 km/h
721 02-03-2003 12:02:54 11.3 C 6.94 g/m*3 11.3 C 0 km/h
722 02-03-2003 12:08:37 11 C 7.01 g/m*3 11 C 0 km/h
723 02-03-2003 12:08:54 11 C 7.01 g/m*3 11 C 0 km/h
724 02-03-2003 12:14:37 10.4 C 7.04 g/m*3 10.4 C 0 km/h
725 02-03-2003 12:14:54 10.4 C 7.04 g/m*3 10.4 C 0 km/h
Sensor: Nr:Datum:Temp:Abs-Feuchte:Windchill:Wind:
Aussen-T/F 726 02-03-2003 12:20:37 10.2 C 7.23 g/m*3 10.2 C 0 km/h
727 02-03-2003 12:20:54 10.2 C 7.23 g/m*3 10.2 C 0 km/h
728 02-03-2003 12:26:37 10 C 7.24 g/m*3 10 C 0 km/h
729 02-03-2003 12:26:54 10 C 7.24 g/m*3 10 C 0 km/h
730 02-03-2003 12:32:37 9.6 C 7.24 g/m*3 9.6 C 0 km/h
731 02-03-2003 12:32:54 9.6 C 7.24 g/m*3 9.6 C 0 km/h
732 02-03-2003 12:38:37 9.7 C 7.56 g/m*3 9.7 C 0 km/h
733 02-03-2003 12:38:54 9.7 C 7.56 g/m*3 9.7 C 0 km/h
734 02-03-2003 12:44:37 10.1 C 7.75 g/m*3 10.1 C 0 km/h
735 02-03-2003 12:44:54 10.1 C 7.75 g/m*3 10.1 C 0 km/h
736 02-03-2003 12:50:37 10.4 C 7.81 g/m*3 10.4 C 0 km/h
737 02-03-2003 12:50:54 10.4 C 7.81 g/m*3 10.4 C 0 km/h
738 02-03-2003 12:56:37 10.5 C 7.66 g/m*3 10.5 C 0 km/h
739 02-03-2003 12:56:54 10.5 C 7.66 g/m*3 10.5 C 0 km/h
740 02-03-2003 13:02:37 10.6 C 7.61 g/m*3 10.6 C 0 km/h
741 02-03-2003 13:02:54 10.6 C 7.61 g/m*3 10.6 C 0 km/h
742 02-03-2003 13:08:37 10.6 C 7.42 g/m*3 10.6 C 0 km/h
743 02-03-2003 13:08:54 10.6 C 7.42 g/m*3 10.6 C 0 km/h
744 02-03-2003 13:14:37 10.7 C 7.27 g/m*3 10.7 C 0 km/h
745 02-03-2003 13:14:54 10.7 C 7.27 g/m*3 10.7 C 0 km/h
746 02-03-2003 13:20:37 11 C 7.61 g/m*3 11 C 0 km/h
747 02-03-2003 13:20:54 11 C 7.61 g/m*3 11 C 0 km/h
748 02-03-2003 13:26:37 11.1 C 7.25 g/m*3 11.1 C 0 km/h
749 02-03-2003 13:26:54 11.1 C 7.25 g/m*3 11.1 C 0 km/h
750 02-03-2003 13:32:37 11.1 C 7.25 g/m*3 11.1 C 0 km/h
Sensor: Nr:Datum:Temp:Abs-Feuchte:Windchill:Wind:
Aussen-T/F 751 02-03-2003 13:32:54 11.1 C 7.25 g/m*3 11.1 C 0 km/h
752 02-03-2003 13:38:37 11 C 7.21 g/m*3 11 C 0 km/h
753 02-03-2003 13:38:54 11 C 7.21 g/m*3 11 C 0 km/h
754 02-03-2003 13:44:37 11.1 C 7.55 g/m*3 11.1 C 0 km/h
755 02-03-2003 13:44:54 11.1 C 7.55 g/m*3 11.1 C 0 km/h
756 02-03-2003 13:50:37 10.8 C 7.61 g/m*3 10.8 C 0 km/h
757 02-03-2003 13:50:54 10.8 C 7.61 g/m*3 10.8 C 0 km/h
758 02-03-2003 13:56:37 10.6 C 7.52 g/m*3 10.6 C 0 km/h
759 02-03-2003 13:56:54 10.6 C 7.52 g/m*3 10.6 C 0 km/h
760 02-03-2003 14:02:37 10.2 C 7.33 g/m*3 10.2 C 0 km/h
761 02-03-2003 14:02:54 10.2 C 7.33 g/m*3 10.2 C 0 km/h
762 02-03-2003 14:08:37 10.2 C 7.33 g/m*3 10.2 C 0 km/h
763 02-03-2003 14:08:54 10.2 C 7.33 g/m*3 10.2 C 0 km/h
764 02-03-2003 14:14:37 9.9 C 7.66 g/m*3 9.9 C 0 km/h
765 02-03-2003 14:14:54 9.9 C 7.66 g/m*3 9.9 C 0 km/h
766 02-03-2003 14:20:37 9.7 C 7.65 g/m*3 9.7 C 0 km/h
767 02-03-2003 14:20:54 9.7 C 7.65 g/m*3 9.7 C 0 km/h
768 02-03-2003 14:26:37 10 C 7.8 g/m*3 10 C 0 km/h
769 02-03-2003 14:26:54 10 C 7.8 g/m*3 10 C 0 km/h
770 02-03-2003 14:32:37 10.1 C 7.56 g/m*3 10.1 C 0 km/h
771 02-03-2003 14:32:54 10.1 C 7.56 g/m*3 10.1 C 0 km/h
772 02-03-2003 14:38:37 10.1 C 7.28 g/m*3 10.1 C 0 km/h
773 02-03-2003 14:38:54 10.1 C 7.28 g/m*3 10.1 C 0 km/h
774 02-03-2003 14:44:37 9.8 C 7.24 g/m*3 9.8 C 0 km/h
775 02-03-2003 14:44:54 9.8 C 7.24 g/m*3 9.8 C 0 km/h
Sensor: Nr:Datum:Temp:Abs-Feuchte:Windchill:Wind:
Aussen-T/F 776 02-03-2003 14:50:37 9.6 C 7.15 g/m*3 9.6 C 0 km/h
777 02-03-2003 14:50:54 9.6 C 7.15 g/m*3 9.6 C 0 km/h
778 02-03-2003 14:56:37 9.6 C 7.24 g/m*3 9.6 C 0 km/h
779 02-03-2003 14:56:54 9.6 C 7.24 g/m*3 9.6 C 0 km/h
780 02-03-2003 15:02:37 9.4 C 7.05 g/m*3 9.4 C 0 km/h
781 02-03-2003 15:02:54 9.4 C 7.05 g/m*3 9.4 C 0 km/h
782 02-03-2003 15:08:10 9.5 C 7.1 g/m*3 9.5 C 0 km/h
783 02-03-2003 15:08:37 9.5 C 7.1 g/m*3 9.5 C 0 km/h
784 02-03-2003 15:14:10 9.6 C 7.33 g/m*3 9.6 C 0 km/h
785 02-03-2003 15:14:37 9.6 C 7.33 g/m*3 9.6 C 0 km/h
786 02-03-2003 15:20:10 9.4 C 6.87 g/m*3 9.4 C 0 km/h
787 02-03-2003 15:20:37 9.4 C 6.87 g/m*3 9.4 C 0 km/h
788 02-03-2003 15:26:10 9.5 C 6.64 g/m*3 9.5 C 0 km/h
789 02-03-2003 15:26:37 9.5 C 6.64 g/m*3 9.5 C 0 km/h
790 02-03-2003 15:32:10 9.7 C 6.64 g/m*3 9.7 C 0 km/h
791 02-03-2003 15:32:37 9.7 C 6.64 g/m*3 9.7 C 0 km/h
792 02-03-2003 15:38:10 9.6 C 6.5 g/m*3 9.6 C 0 km/h
793 02-03-2003 15:38:37 9.6 C 6.5 g/m*3 9.6 C 0 km/h
794 02-03-2003 15:44:10 9.9 C 6.82 g/m*3 9.9 C 0 km/h
795 02-03-2003 15:44:37 9.9 C 6.82 g/m*3 9.9 C 0 km/h
796 02-03-2003 15:50:10 10 C 6.58 g/m*3 10 C 0 km/h
797 02-03-2003 15:50:37 10 C 6.58 g/m*3 10 C 0 km/h
798 02-03-2003 15:56:10 10 C 6.58 g/m*3 10 C 0 km/h
799 02-03-2003 15:56:37 10 C 6.58 g/m*3 10 C 0 km/h
800 02-03-2003 16:02:02 9.9 C 6.54 g/m*3 9.9 C 0 km/h
Sensor: Nr:Datum:Temp:Abs-Feuchte:Windchill:Wind:
Aussen-T/F 801 02-03-2003 16:02:37 9.9 C 6.54 g/m*3 9.9 C 0 km/h
802 02-03-2003 16:08:02 9.7 C 6.45 g/m*3 9.7 C 0 km/h
803 02-03-2003 16:08:37 9.7 C 6.45 g/m*3 9.7 C 0 km/h
804 02-03-2003 16:14:02 9.7 C 6.64 g/m*3 9.7 C 0 km/h
805 02-03-2003 16:14:37 9.7 C 6.64 g/m*3 9.7 C 0 km/h
806 02-03-2003 16:20:02 9.7 C 6.55 g/m*3 9.7 C 0 km/h
807 02-03-2003 16:20:37 9.7 C 6.55 g/m*3 9.7 C 0 km/h
808 02-03-2003 16:26:02 9.7 C 6.55 g/m*3 9.7 C 0 km/h
809 02-03-2003 16:26:37 9.7 C 6.55 g/m*3 9.7 C 0 km/h
810 02-03-2003 16:32:02 9.8 C 6.59 g/m*3 9.8 C 0 km/h
811 02-03-2003 16:32:37 9.8 C 6.59 g/m*3 9.8 C 0 km/h
812 02-03-2003 16:38:02 10.1 C 6.52 g/m*3 10.1 C 0 km/h
813 02-03-2003 16:38:37 10.1 C 6.52 g/m*3 10.1 C 0 km/h
814 02-03-2003 16:44:02 10.1 C 6.34 g/m*3 10.1 C 0 km/h
815 02-03-2003 16:44:37 10.1 C 6.34 g/m*3 10.1 C 0 km/h
816 02-03-2003 16:50:02 10 C 6.3 g/m*3 10 C 0 km/h
817 02-03-2003 16:50:37 10 C 6.3 g/m*3 10 C 0 km/h
818 02-03-2003 16:56:02 9.9 C 6.44 g/m*3 9.9 C 0 km/h
819 02-03-2003 16:56:37 9.9 C 6.44 g/m*3 9.9 C 0 km/h
820 02-03-2003 17:02:02 9.8 C 6.4 g/m*3 9.8 C 0 km/h
821 02-03-2003 17:02:37 9.8 C 6.4 g/m*3 9.8 C 0 km/h
822 02-03-2003 17:08:02 9.7 C 6.55 g/m*3 9.7 C 0 km/h
823 02-03-2003 17:08:37 9.7 C 6.55 g/m*3 9.7 C 0 km/h
824 02-03-2003 17:14:02 9.6 C 6.32 g/m*3 9.6 C 0 km/h
825 02-03-2003 17:14:37 9.6 C 6.32 g/m*3 9.6 C 0 km/h
Sensor: Nr:Datum:Temp:Abs-Feuchte:Windchill:Wind:
Aussen-T/F 826 02-03-2003 17:20:02 9.6 C 6.32 g/m*3 9.6 C 0 km/h
827 02-03-2003 17:20:37 9.6 C 6.32 g/m*3 9.6 C 0 km/h
828 02-03-2003 17:26:02 9.5 C 6.28 g/m*3 9.5 C 0 km/h
829 02-03-2003 17:26:37 9.5 C 6.28 g/m*3 9.5 C 0 km/h
830 02-03-2003 17:32:02 9.3 C 6.2 g/m*3 9.3 C 0 km/h
831 02-03-2003 17:32:37 9.3 C 6.2 g/m*3 9.3 C 0 km/h
832 02-03-2003 17:38:02 9.2 C 6.16 g/m*3 9.2 C 0 km/h
833 02-03-2003 17:38:37 9.2 C 6.16 g/m*3 9.2 C 0 km/h
834 02-03-2003 17:44:32 9.3 C 6.2 g/m*3 9.3 C 0 km/h
835 02-03-2003 17:44:37 9.3 C 6.2 g/m*3 9.3 C 0 km/h
836 02-03-2003 17:50:32 9.3 C 6.2 g/m*3 9.3 C 0 km/h
837 02-03-2003 17:50:37 9.3 C 6.2 g/m*3 9.3 C 0 km/h
838 02-03-2003 17:56:37 9.2 C 6.16 g/m*3 9.2 C 0 km/h
839 02-03-2003 18:02:37 9.1 C 6.03 g/m*3 9.1 C 0 km/h
840 02-03-2003 18:08:37 9 C 5.99 g/m*3 9 C 0 km/h
841 02-03-2003 18:14:37 8.9 C 6.04 g/m*3 8.9 C 0 km/h
842 02-03-2003 18:20:37 8.6 C 5.93 g/m*3 8.6 C 0 km/h
843 02-03-2003 18:26:37 8.3 C 5.98 g/m*3 8.3 C 0 km/h
844 02-03-2003 18:32:37 8.2 C 5.95 g/m*3 8.2 C 0 km/h
845 02-03-2003 18:38:37 8.1 C 5.91 g/m*3 8.1 C 0 km/h
846 02-03-2003 18:44:37 8 C 5.87 g/m*3 8 C 0 km/h
847 02-03-2003 18:50:37 7.9 C 6 g/m*3 7.9 C 0 km/h
848 02-03-2003 18:56:37 7.8 C 6.04 g/m*3 7.8 C 0 km/h
849 02-03-2003 19:02:37 7.7 C 6 g/m*3 7.7 C 0 km/h
850 02-03-2003 19:08:37 7.8 C 5.96 g/m*3 7.8 C 0 km/h
Sensor: Nr:Datum:Temp:Abs-Feuchte:Windchill:Wind:
Aussen-T/F 851 02-03-2003 19:14:37 7.8 C 6.04 g/m*3 7.8 C 0 km/h
852 02-03-2003 19:20:37 7.7 C 6 g/m*3 7.7 C 0 km/h
853 02-03-2003 19:26:37 7.5 C 6 g/m*3 7.5 C 0 km/h
854 02-03-2003 19:32:37 7.5 C 6 g/m*3 7.5 C 0 km/h
855 02-03-2003 19:38:37 7.4 C 6.04 g/m*3 7.4 C 0 km/h
856 02-03-2003 19:44:37 7.5 C 6 g/m*3 7.5 C 0 km/h
857 02-03-2003 19:50:37 7.7 C 6 g/m*3 7.7 C 0 km/h
858 02-03-2003 19:56:37 7.6 C 5.88 g/m*3 7.6 C 0 km/h
859 02-03-2003 20:02:37 7.5 C 5.92 g/m*3 7.5 C 0 km/h
860 02-03-2003 20:08:37 7.5 C 5.92 g/m*3 7.5 C 0 km/h
861 02-03-2003 20:14:37 7.5 C 5.92 g/m*3 7.5 C 0 km/h
862 02-03-2003 20:20:37 7.4 C 5.88 g/m*3 7.4 C 0 km/h
863 02-03-2003 20:26:37 7.3 C 5.85 g/m*3 7.3 C 0 km/h
864 02-03-2003 20:32:37 7 C 5.81 g/m*3 7 C 0 km/h
865 02-03-2003 20:38:37 6.9 C 5.85 g/m*3 6.9 C 0 km/h
866 02-03-2003 20:44:37 6.6 C 5.81 g/m*3 6.6 C 0 km/h
867 02-03-2003 20:51:11 6.3 C 5.77 g/m*3 6.3 C 0 km/h
868 02-03-2003 20:57:11 6 C 5.73 g/m*3 6 C 0 km/h
869 02-03-2003 21:03:11 5.9 C 5.77 g/m*3 5.9 C 0 km/h
870 02-03-2003 21:09:11 5.9 C 5.84 g/m*3 5.9 C 0 km/h
871 02-03-2003 21:15:11 6 C 5.81 g/m*3 6 C 0 km/h
872 02-03-2003 21:21:11 6 C 5.81 g/m*3 6 C 0 km/h
873 02-03-2003 21:27:11 5.9 C 5.84 g/m*3 5.9 C 0 km/h
874 02-03-2003 21:33:11 5.9 C 5.84 g/m*3 5.9 C 0 km/h
875 02-03-2003 21:39:11 6 C 5.81 g/m*3 6 C 0 km/h
Sensor: Nr:Datum:Temp:Abs-Feuchte:Windchill:Wind:
Aussen-T/F 876 02-03-2003 21:45:11 6 C 5.81 g/m*3 6 C 0 km/h
877 02-03-2003 21:51:11 5.9 C 5.84 g/m*3 5.9 C 0 km/h
878 02-03-2003 21:57:11 5.9 C 5.91 g/m*3 5.9 C 0 km/h
879 02-03-2003 22:03:11 6 C 5.88 g/m*3 6 C 0 km/h
880 02-03-2003 22:09:11 6.3 C 5.92 g/m*3 6.3 C 0 km/h
881 02-03-2003 22:15:11 6.7 C 6 g/m*3 6.7 C 0 km/h
882 02-03-2003 22:21:11 6.7 C 5.93 g/m*3 6.7 C 0 km/h
883 02-03-2003 22:27:11 6.7 C 5.93 g/m*3 6.7 C 0 km/h
884 02-03-2003 22:39:11 6.8 C 5.89 g/m*3 6.8 C 0 km/h
885 02-03-2003 22:45:11 6.9 C 5.93 g/m*3 6.9 C 0 km/h
886 02-03-2003 22:51:11 6.9 C 5.93 g/m*3 6.9 C 0 km/h
887 02-03-2003 22:57:11 6.8 C 5.81 g/m*3 6.8 C 0 km/h
888 02-03-2003 23:03:11 6.7 C 5.85 g/m*3 6.7 C 0 km/h
889 02-03-2003 23:09:11 6.8 C 5.89 g/m*3 6.8 C 0 km/h
890 02-03-2003 23:15:11 6.8 C 5.89 g/m*3 6.8 C 0 km/h
891 02-03-2003 23:21:11 6.8 C 5.89 g/m*3 6.8 C 0 km/h
892 02-03-2003 23:27:11 6.7 C 5.85 g/m*3 6.7 C 0 km/h
893 02-03-2003 23:33:11 6.7 C 5.85 g/m*3 6.7 C 0 km/h
894 02-03-2003 23:39:11 6.7 C 5.85 g/m*3 6.7 C 0 km/h
895 02-03-2003 23:45:11 6.7 C 5.93 g/m*3 6.7 C 0 km/h
896 02-03-2003 23:51:11 6.7 C 5.93 g/m*3 6.7 C 0 km/h
897 02-03-2003 23:57:11 6.5 C 5.85 g/m*3 6.5 C 0 km/h

Legende:
   Min
   Max


Maximal/Minimal-Werte vom 01.03.2003 - 02.03.2003

Sensor Min Max Avg
Temp
(Aussen-T/F)
4.2 °C
01-03-2003  01:13:10
11.9 °C
01-03-2003  15:31:10
8.27 °C
Abs-Feuchte
(Aussen-T/F)
5.35 g/m*3
01-03-2003  01:13:10
8.1 g/m*3
02-03-2003  09:50:11
6.8 g/m*3
Windchill
(Aussen-T/F)
4.2 C
01-03-2003  01:13:10
11.9 C
01-03-2003  15:31:10
8.26 C

Die Daten stammen von einer Davis Vantage Pro 2 Wetter-Station und werden unter Linux mit der Software wview2wettercgi und aufbereitet. Alle Angaben erfolgen ohne Gewähr für ihre Vollständigkeit oder Richtigkeit.
Kontakt: Rainer Krienke krienke@uni-koblenz.de . Meine Webseiten an der Uni Koblenz oder privat.
Version: $Revision: 0.78 $